Kuchera_Ratio
11.6 9.4 8.5 8.4 6.6 6.1 5.9 5.4 4.9 0.0 0.0 0.0 0.0 0.0 0.0 0.0 0.0 0.0 0.0 0.0 0.0 0.0 0.0 0.0 0.0 0.0 0.0
12.7 12.1 12.0 8.9 8.6 9.1 6.6 2.5 6.2 0.2 0.0 0.0 0.0 0.0 0.0 0.0 0.0 0.0 0.0 0.0 0.0 0.0 0.0 0.0 0.0 0.0 0.0
13.4 12.6 12.5 10.9 10.6 9.6 8.9 7.6 3.4 0.0 0.0 0.0 0.0 0.0 0.0 0.0 0.0 0.0 0.0 0.0 0.0 0.0 0.0 0.0 0.0 0.0 0.0
13.6 13.2 13.0 12.0 12.3 13.0 12.4 9.9 9.0 3.1 1.0 0.0 0.0 0.0 0.0 0.0 0.0 0.0 0.0 0.0 0.0 0.0 0.0 0.0 0.0 0.0 0.0
14.1 13.8 13.7 13.5 13.5 12.9 12.8 12.6 12.2 9.1 8.2 6.3 5.7 4.8 4.1 0.2 0.0 0.0 0.0 0.0 0.0 0.0 0.0 0.0 0.0 0.0 0.0
14.0 14.5 14.0 13.8 13.3 13.2 13.4 13.9 14.9 8.3 12.2 9.6 7.0 8.2 6.2 5.4 0.0 0.0 0.0 0.0 0.0 0.0 0.0 0.0 0.0 0.0 0.0
14.3 13.9 14.5 13.3 12.9 13.3 13.5 13.7 13.9 11.3 12.4 12.7 8.6 9.8 7.2 3.2 0.0 0.0 0.0 0.0 0.0 0.0 0.0 0.0 0.0 0.0 0.0
11.9 12.7 12.3 11.0 11.5 11.3 12.5 12.8 12.3 10.4 11.1 14.2 11.9 12.5 8.2 7.1 1.0 0.0 0.0 0.0 0.0 0.0 0.0 0.0 0.0 0.0 0.0
1.6 1.6 1.9 1.3 3.3 12.6 14.2 13.5 13.5 12.6 10.3 13.7 12.3 11.7 10.9 10.2 7.4 0.6 0.0 0.0 0.0 0.0 0.0 0.0 0.0 0.0 1.0
10.3 8.5 5.1 7.5 1.4 7.0 13.0 14.2 14.4 15.7 11.2 13.9 13.1 13.1 15.3 10.8 9.6 8.7 7.7 3.6 0.5 0.0 0.0 0.0 0.0 4.3 6.7
13.0 12.7 12.2 12.2 11.1 10.5 10.6 12.4 14.6 15.2 10.6 12.8 14.4 14.4 14.8 14.1 13.3 11.1 11.5 10.8 9.8 8.0 3.6 2.4 1.8 2.9 8.6
12.5 12.9 13.0 12.5 11.3 10.9 11.3 11.6 12.0 12.2 10.5 11.9 15.4 15.0 15.8 16.5 16.2 13.5 12.4 12.1 11.7 11.6 10.7 6.9 4.2 3.1 2.6
13.0 13.0 12.7 11.6 11.5 12.4 12.1 12.1 12.6 12.5 9.3 11.5 13.9 15.0 16.3 17.0 17.0 15.8 15.0 14.0 12.8 13.0 12.6 12.4 12.3 11.5 12.7
12.7 12.4 12.0 13.4 14.0 13.9 14.4 14.6 15.5 15.5 12.8 12.8 13.3 14.6 16.7 17.1 16.5 16.9 15.5 16.4 14.7 13.3 12.9 12.5 11.9 11.1 11.8
14.0 14.2 13.9 13.8 14.1 14.6 15.3 15.7 17.3 17.3 16.8 15.8 13.5 13.6 14.8 15.9 17.6 15.7 15.3 15.7 14.5 14.2 13.9 14.4 12.7 11.9 11.3
13.9 14.1 14.8 15.4 15.6 16.0 15.4 16.6 17.7 16.8 17.2 17.1 17.6 17.9 18.3 15.3 12.5 15.6 15.2 15.1 14.5 14.2 13.9 15.4 14.8 12.6 11.1
14.4 15.6 15.8 15.9 15.4 16.5 17.0 16.3 16.6 16.6 16.7 17.2 18.0 19.2 19.4 20.4 15.8 8.9 15.8 15.1 15.1 15.5 14.6 15.1 15.7 13.8 12.1